Year,Month,Day,Hour,Minute,Value (Times are PST for temperature in C)
2014,04,26,00,00,6.70
2014,04,26,00,01,6.70
2014,04,26,00,02,6.70
2014,04,26,00,03,6.70
2014,04,26,00,04,6.60
2014,04,26,00,05,6.50
2014,04,26,00,06,6.50
2014,04,26,00,07,6.40
2014,04,26,00,08,6.30
2014,04,26,00,09,6.20
2014,04,26,00,10,6.10
2014,04,26,00,11,6.00
2014,04,26,00,12,6.00
2014,04,26,00,13,5.90
2014,04,26,00,14,5.80
2014,04,26,00,15,5.70
2014,04,26,00,16,5.70
2014,04,26,00,17,5.60
2014,04,26,00,18,5.60
2014,04,26,00,19,5.50
2014,04,26,00,20,5.40
2014,04,26,00,21,5.40
2014,04,26,00,22,5.30
2014,04,26,00,23,5.30
2014,04,26,00,24,5.20
2014,04,26,00,25,5.20
2014,04,26,00,26,5.20
2014,04,26,00,27,5.10
2014,04,26,00,28,5.10
2014,04,26,00,29,5.10
2014,04,26,00,30,5.00
2014,04,26,00,31,5.00
2014,04,26,00,32,4.90
2014,04,26,00,33,4.90
2014,04,26,00,34,4.90
2014,04,26,00,35,4.90
2014,04,26,00,36,4.90
2014,04,26,00,37,4.80
2014,04,26,00,38,4.80
2014,04,26,00,39,4.80
2014,04,26,00,40,4.80
2014,04,26,00,41,4.80
2014,04,26,00,42,4.80
2014,04,26,00,43,4.80
2014,04,26,00,44,4.70
2014,04,26,00,45,4.70
2014,04,26,00,46,4.70
2014,04,26,00,47,4.70
2014,04,26,00,48,4.70
2014,04,26,00,49,4.60
2014,04,26,00,50,4.60
2014,04,26,00,51,4.60
2014,04,26,00,52,4.60
2014,04,26,00,53,4.50
2014,04,26,00,54,4.50
2014,04,26,00,55,4.50
2014,04,26,00,56,4.40
2014,04,26,00,57,4.40
2014,04,26,00,58,4.40
2014,04,26,00,59,4.40
2014,04,26,01,00,4.40
2014,04,26,01,01,4.40
2014,04,26,01,02,4.40
2014,04,26,01,03,4.30
2014,04,26,01,04,4.30
2014,04,26,01,05,4.30
2014,04,26,01,06,4.30
2014,04,26,01,07,4.30
2014,04,26,01,08,4.30
2014,04,26,01,09,4.30
2014,04,26,01,10,4.30
2014,04,26,01,11,4.30
2014,04,26,01,12,4.20
2014,04,26,01,13,4.20
2014,04,26,01,14,4.20
2014,04,26,01,15,4.20
2014,04,26,01,16,4.20
2014,04,26,01,17,4.10
2014,04,26,01,18,4.10
2014,04,26,01,19,4.10
2014,04,26,01,20,4.10
2014,04,26,01,21,4.10
2014,04,26,01,22,4.00
2014,04,26,01,23,4.00
2014,04,26,01,24,4.00
2014,04,26,01,25,4.00
2014,04,26,01,26,4.00
2014,04,26,01,27,4.00
2014,04,26,01,28,3.90
2014,04,26,01,29,3.90
2014,04,26,01,30,3.90
2014,04,26,01,31,3.90
2014,04,26,01,32,3.90
2014,04,26,01,33,3.90
2014,04,26,01,34,3.90
2014,04,26,01,35,3.90
2014,04,26,01,36,3.90
2014,04,26,01,37,3.90
2014,04,26,01,38,3.90
2014,04,26,01,39,3.90
2014,04,26,01,40,3.80
2014,04,26,01,41,3.80
2014,04,26,01,42,3.80
2014,04,26,01,43,3.80
2014,04,26,01,44,3.80
2014,04,26,01,45,3.80
2014,04,26,01,46,3.80
2014,04,26,01,47,3.80
2014,04,26,01,48,3.70
2014,04,26,01,49,3.80
2014,04,26,01,50,3.80
2014,04,26,01,51,3.80
2014,04,26,01,52,3.80
2014,04,26,01,53,3.80
2014,04,26,01,54,3.80
2014,04,26,01,55,3.80
2014,04,26,01,56,3.80
2014,04,26,01,57,3.80
2014,04,26,01,58,3.80
2014,04,26,01,59,3.80
2014,04,26,02,00,3.80
2014,04,26,02,01,3.80
2014,04,26,02,02,3.80
2014,04,26,02,03,3.80
2014,04,26,02,04,3.70
2014,04,26,02,05,3.70
2014,04,26,02,06,3.70
2014,04,26,02,07,3.70
2014,04,26,02,08,3.70
2014,04,26,02,09,3.70
2014,04,26,02,10,3.70
2014,04,26,02,11,3.70
2014,04,26,02,12,3.70
2014,04,26,02,13,3.70
2014,04,26,02,14,3.70
2014,04,26,02,15,3.60
2014,04,26,02,16,3.60
2014,04,26,02,17,3.60
2014,04,26,02,18,3.60
2014,04,26,02,19,3.60
2014,04,26,02,20,3.60
2014,04,26,02,21,3.60
2014,04,26,02,22,3.60
2014,04,26,02,23,3.60
2014,04,26,02,24,3.60
2014,04,26,02,25,3.60
2014,04,26,02,26,3.60
2014,04,26,02,27,3.60
2014,04,26,02,28,3.60
2014,04,26,02,29,3.60
2014,04,26,02,30,3.50
2014,04,26,02,31,3.50
2014,04,26,02,32,3.50
2014,04,26,02,33,3.50
2014,04,26,02,34,3.40
2014,04,26,02,35,3.40
2014,04,26,02,36,3.40
2014,04,26,02,37,3.40
2014,04,26,02,38,3.40
2014,04,26,02,39,3.40
2014,04,26,02,40,3.40
2014,04,26,02,41,3.40
2014,04,26,02,42,3.40
2014,04,26,02,43,3.40
2014,04,26,02,44,3.40
2014,04,26,02,45,3.40
2014,04,26,02,46,3.40
2014,04,26,02,47,3.40
2014,04,26,02,48,3.40
2014,04,26,02,49,3.30
2014,04,26,02,50,3.30
2014,04,26,02,51,3.30
2014,04,26,02,52,3.30
2014,04,26,02,53,3.30
2014,04,26,02,54,3.30
2014,04,26,02,55,3.30
2014,04,26,02,56,3.20
2014,04,26,02,57,3.20
2014,04,26,02,58,3.20
2014,04,26,02,59,3.20
2014,04,26,03,00,3.20
2014,04,26,03,01,3.20
2014,04,26,03,02,3.10
2014,04,26,03,03,3.20
2014,04,26,03,04,3.20
2014,04,26,03,05,3.20
2014,04,26,03,06,3.20
2014,04,26,03,07,3.20
2014,04,26,03,08,3.20
2014,04,26,03,09,3.20
2014,04,26,03,10,3.20
2014,04,26,03,11,3.20
2014,04,26,03,12,3.20
2014,04,26,03,13,3.20
2014,04,26,03,14,3.10
2014,04,26,03,15,3.10
2014,04,26,03,16,3.10
2014,04,26,03,17,3.10
2014,04,26,03,18,3.10
2014,04,26,03,19,3.10
2014,04,26,03,20,3.10
2014,04,26,03,21,3.00
2014,04,26,03,22,3.00
2014,04,26,03,23,3.00
2014,04,26,03,24,3.00
2014,04,26,03,25,3.10
2014,04,26,03,26,3.20
2014,04,26,03,27,3.30
2014,04,26,03,28,3.30
2014,04,26,03,29,3.40
2014,04,26,03,30,3.40
2014,04,26,03,31,3.40
2014,04,26,03,32,3.40
2014,04,26,03,33,3.40
2014,04,26,03,34,3.40
2014,04,26,03,35,3.40
2014,04,26,03,36,3.40
2014,04,26,03,37,3.60
2014,04,26,03,38,3.70
2014,04,26,03,39,3.90
2014,04,26,03,40,4.10
2014,04,26,03,41,4.30
2014,04,26,03,42,4.50
2014,04,26,03,43,4.70
2014,04,26,03,44,4.80
2014,04,26,03,45,5.00
2014,04,26,03,46,5.20
2014,04,26,03,47,5.40
2014,04,26,03,48,5.60
2014,04,26,03,49,5.90
2014,04,26,03,50,6.00
2014,04,26,03,51,6.20
2014,04,26,03,52,6.30
2014,04,26,03,53,6.40
2014,04,26,03,54,6.60
2014,04,26,03,55,6.70
2014,04,26,03,56,6.70
2014,04,26,03,57,6.80
2014,04,26,03,58,6.80
2014,04,26,03,59,6.80
2014,04,26,04,00,6.90
2014,04,26,04,01,6.90
2014,04,26,04,02,7.00
2014,04,26,04,03,7.00
2014,04,26,04,04,7.10
2014,04,26,04,05,7.10
2014,04,26,04,06,7.10
2014,04,26,04,07,7.10
2014,04,26,04,08,7.20
2014,04,26,04,09,7.20
2014,04,26,04,10,7.20
2014,04,26,04,11,7.20
2014,04,26,04,12,7.20
2014,04,26,04,13,7.20
2014,04,26,04,14,7.20
2014,04,26,04,15,7.20
2014,04,26,04,16,7.20
2014,04,26,04,17,7.20
2014,04,26,04,18,7.20
2014,04,26,04,19,7.30
2014,04,26,04,20,7.30
2014,04,26,04,21,7.30
2014,04,26,04,22,7.30
2014,04,26,04,23,7.30
2014,04,26,04,24,7.30
2014,04,26,04,25,7.30
2014,04,26,04,26,7.30
2014,04,26,04,27,7.30
2014,04,26,04,28,7.30
2014,04,26,04,29,7.30
2014,04,26,04,30,7.30
2014,04,26,04,31,7.30
2014,04,26,04,32,7.30
2014,04,26,04,33,7.30
2014,04,26,04,34,7.30
2014,04,26,04,35,7.30
2014,04,26,04,36,7.30
2014,04,26,04,37,7.30
2014,04,26,04,38,7.30
2014,04,26,04,39,7.30
2014,04,26,04,40,7.30
2014,04,26,04,41,7.30
2014,04,26,04,42,7.30
2014,04,26,04,43,7.30
2014,04,26,04,44,7.30
2014,04,26,04,45,7.30
2014,04,26,04,46,7.30
2014,04,26,04,47,7.30
2014,04,26,04,48,7.30
2014,04,26,04,49,7.30
2014,04,26,04,50,7.30
2014,04,26,04,51,7.30
2014,04,26,04,52,7.30
2014,04,26,04,53,7.30
2014,04,26,04,54,7.30
2014,04,26,04,55,7.20
2014,04,26,04,56,7.20
2014,04,26,04,57,7.20
2014,04,26,04,58,7.20
2014,04,26,04,59,7.20
2014,04,26,05,00,7.20
2014,04,26,05,01,7.20
2014,04,26,05,02,7.10
2014,04,26,05,03,7.10
2014,04,26,05,04,7.20
2014,04,26,05,05,7.20
2014,04,26,05,06,7.20
2014,04,26,05,07,7.10
2014,04,26,05,08,7.10
2014,04,26,05,09,7.10
2014,04,26,05,10,7.10
2014,04,26,05,11,7.10
2014,04,26,05,12,7.10
2014,04,26,05,13,7.10
2014,04,26,05,14,7.00
2014,04,26,05,15,7.10
2014,04,26,05,16,7.10
2014,04,26,05,17,7.10
2014,04,26,05,18,7.10
2014,04,26,05,19,7.10
2014,04,26,05,20,7.10
2014,04,26,05,21,7.10
2014,04,26,05,22,7.10
2014,04,26,05,23,7.10
2014,04,26,05,24,7.10
2014,04,26,05,25,7.10
2014,04,26,05,26,7.10
2014,04,26,05,27,7.10
2014,04,26,05,28,7.10
2014,04,26,05,29,7.10
2014,04,26,05,30,7.10
2014,04,26,05,31,7.10
2014,04,26,05,32,7.10
2014,04,26,05,33,7.10
2014,04,26,05,34,7.10
2014,04,26,05,35,7.00
2014,04,26,05,36,7.00
2014,04,26,05,37,7.00
2014,04,26,05,38,6.90
2014,04,26,05,39,6.90
2014,04,26,05,40,6.90
2014,04,26,05,41,6.80
2014,04,26,05,42,6.80
2014,04,26,05,43,6.80
2014,04,26,05,44,6.80
2014,04,26,05,45,6.70
2014,04,26,05,46,6.70
2014,04,26,05,47,6.70
2014,04,26,05,48,6.70
2014,04,26,05,49,6.70
2014,04,26,05,50,6.70
2014,04,26,05,51,6.70
2014,04,26,05,52,6.80
2014,04,26,05,53,6.80
2014,04,26,05,54,6.80
2014,04,26,05,55,6.80
2014,04,26,05,56,6.80
2014,04,26,05,57,6.80
2014,04,26,05,58,6.80
2014,04,26,05,59,6.80
2014,04,26,06,00,6.80
2014,04,26,06,01,6.80
2014,04,26,06,02,6.80
2014,04,26,06,03,6.80
2014,04,26,06,04,6.80
2014,04,26,06,05,6.80
2014,04,26,06,06,6.80
2014,04,26,06,07,6.80
2014,04,26,06,08,6.80
2014,04,26,06,09,6.80
2014,04,26,06,10,6.90
2014,04,26,06,11,6.80
2014,04,26,06,12,6.80
2014,04,26,06,13,6.80
2014,04,26,06,14,6.80
2014,04,26,06,15,6.80
2014,04,26,06,16,6.80
2014,04,26,06,17,6.80
2014,04,26,06,18,6.80
2014,04,26,06,19,6.80
2014,04,26,06,20,6.80
2014,04,26,06,21,6.70
2014,04,26,06,22,6.70
2014,04,26,06,23,6.70
2014,04,26,06,24,6.70
2014,04,26,06,25,6.70
2014,04,26,06,26,6.70
2014,04,26,06,27,6.60
2014,04,26,06,28,6.50
2014,04,26,06,29,6.50
2014,04,26,06,30,6.40
2014,04,26,06,31,6.30
2014,04,26,06,32,6.20
2014,04,26,06,33,6.20
2014,04,26,06,34,6.10
2014,04,26,06,35,6.10
2014,04,26,06,36,6.00
2014,04,26,06,37,6.00
2014,04,26,06,38,5.90
2014,04,26,06,39,5.90
2014,04,26,06,40,5.80
2014,04,26,06,41,5.80
2014,04,26,06,42,5.80
2014,04,26,06,43,5.70
2014,04,26,06,44,5.70
2014,04,26,06,45,5.60
2014,04,26,06,46,5.60
2014,04,26,06,47,5.50
2014,04,26,06,48,5.50
2014,04,26,06,49,5.40
2014,04,26,06,50,5.40
2014,04,26,06,51,5.30
2014,04,26,06,52,5.30
2014,04,26,06,53,5.20
2014,04,26,06,54,5.20
2014,04,26,06,55,5.20
2014,04,26,06,56,5.10
2014,04,26,06,57,5.10
2014,04,26,06,58,5.10
2014,04,26,06,59,5.10
2014,04,26,07,00,5.10
2014,04,26,07,01,5.00
2014,04,26,07,02,5.00
2014,04,26,07,03,5.00
2014,04,26,07,04,5.00
2014,04,26,07,05,5.00
2014,04,26,07,06,5.00
2014,04,26,07,07,5.00
2014,04,26,07,08,5.00
2014,04,26,07,09,5.00
2014,04,26,07,10,5.00
2014,04,26,07,11,5.00
2014,04,26,07,12,5.00
2014,04,26,07,13,5.10
2014,04,26,07,14,5.10
2014,04,26,07,15,5.10
2014,04,26,07,16,5.20
2014,04,26,07,17,5.30
2014,04,26,07,18,5.30
2014,04,26,07,19,5.40
2014,04,26,07,20,5.40
2014,04,26,07,21,5.50
2014,04,26,07,22,5.50
2014,04,26,07,23,5.50
2014,04,26,07,24,5.60
2014,04,26,07,25,5.60
2014,04,26,07,26,5.70
2014,04,26,07,27,5.70
2014,04,26,07,28,5.70
2014,04,26,07,29,5.80
2014,04,26,07,30,5.80
2014,04,26,07,31,5.90
2014,04,26,07,32,5.90
2014,04,26,07,33,6.00
2014,04,26,07,34,6.00
2014,04,26,07,35,6.10
2014,04,26,07,36,6.20
2014,04,26,07,37,6.30
2014,04,26,07,38,6.30
2014,04,26,07,39,6.40
2014,04,26,07,40,6.40
2014,04,26,07,41,6.50
2014,04,26,07,42,6.50
2014,04,26,07,43,6.60
2014,04,26,07,44,6.70
2014,04,26,07,45,6.70
2014,04,26,07,46,6.80
2014,04,26,07,47,6.80
2014,04,26,07,48,6.90
2014,04,26,07,49,7.00
2014,04,26,07,50,7.10
2014,04,26,07,51,7.20
2014,04,26,07,52,7.30
2014,04,26,07,53,7.50
2014,04,26,07,54,7.60
2014,04,26,07,55,7.70
2014,04,26,07,56,7.80
2014,04,26,07,57,8.00
2014,04,26,07,58,8.10
2014,04,26,07,59,8.10
2014,04,26,08,00,8.20
2014,04,26,08,01,8.30
2014,04,26,08,02,8.40
2014,04,26,08,03,8.50
2014,04,26,08,04,8.60
2014,04,26,08,05,8.60
2014,04,26,08,06,8.70
2014,04,26,08,07,8.70
2014,04,26,08,08,8.80
2014,04,26,08,09,8.80
2014,04,26,08,10,8.90
2014,04,26,08,11,8.90
2014,04,26,08,12,9.00
2014,04,26,08,13,9.00
2014,04,26,08,14,9.00
2014,04,26,08,15,9.10
2014,04,26,08,16,9.10
2014,04,26,08,17,9.10
2014,04,26,08,18,9.10
2014,04,26,08,19,9.10
2014,04,26,08,20,9.10
2014,04,26,08,21,9.10
2014,04,26,08,22,9.10
2014,04,26,08,23,9.10
2014,04,26,08,24,9.10
2014,04,26,08,25,9.10
2014,04,26,08,26,9.10
2014,04,26,08,27,9.10
2014,04,26,08,28,9.20
2014,04,26,08,29,9.20
2014,04,26,08,30,9.20
2014,04,26,08,31,9.30
2014,04,26,08,32,9.30
2014,04,26,08,33,9.30
2014,04,26,08,34,9.40
2014,04,26,08,35,9.40
2014,04,26,08,36,9.40
2014,04,26,08,37,9.40
2014,04,26,08,38,9.50
2014,04,26,08,39,9.50
2014,04,26,08,40,9.50
2014,04,26,08,41,9.60
2014,04,26,08,42,9.60
2014,04,26,08,43,9.60
2014,04,26,08,44,9.60
2014,04,26,08,45,9.60
2014,04,26,08,46,9.70
2014,04,26,08,47,9.70
2014,04,26,08,48,9.70
2014,04,26,08,49,9.80
2014,04,26,08,50,9.80
2014,04,26,08,51,9.80
2014,04,26,08,52,9.80
2014,04,26,08,53,9.80
2014,04,26,08,54,9.80
2014,04,26,08,55,9.80
2014,04,26,08,56,9.80
2014,04,26,08,57,9.80
2014,04,26,08,58,9.80
2014,04,26,08,59,9.90
2014,04,26,09,00,9.90
2014,04,26,09,01,10.00
2014,04,26,09,02,10.00
2014,04,26,09,03,10.00
2014,04,26,09,04,10.10
2014,04,26,09,05,10.10
2014,04,26,09,06,10.10
2014,04,26,09,07,10.20
2014,04,26,09,08,10.20
2014,04,26,09,09,10.30
2014,04,26,09,10,10.40
2014,04,26,09,11,10.40
2014,04,26,09,12,10.40
2014,04,26,09,13,10.40
2014,04,26,09,14,10.40
2014,04,26,09,15,10.40
2014,04,26,09,16,10.40
2014,04,26,09,17,10.40
2014,04,26,09,18,10.40
2014,04,26,09,19,10.40
2014,04,26,09,20,10.50
2014,04,26,09,21,10.60
2014,04,26,09,22,10.60
2014,04,26,09,23,10.60
2014,04,26,09,24,10.60
2014,04,26,09,25,10.60
2014,04,26,09,26,10.60
2014,04,26,09,27,10.50
2014,04,26,09,28,10.50
2014,04,26,09,29,10.40
2014,04,26,09,30,10.40
2014,04,26,09,31,10.40
2014,04,26,09,32,10.50
2014,04,26,09,33,10.60
2014,04,26,09,34,10.60
2014,04,26,09,35,10.70
2014,04,26,09,36,10.70
2014,04,26,09,37,10.70
2014,04,26,09,38,10.80
2014,04,26,09,39,10.80
2014,04,26,09,40,10.80
2014,04,26,09,41,10.80
2014,04,26,09,42,10.80
2014,04,26,09,43,10.90
2014,04,26,09,44,11.00
2014,04,26,09,45,11.10
2014,04,26,09,46,11.10
2014,04,26,09,47,11.00
2014,04,26,09,48,11.00
2014,04,26,09,49,10.90
2014,04,26,09,50,10.80
2014,04,26,09,51,10.80
2014,04,26,09,52,10.80
2014,04,26,09,53,10.80
2014,04,26,09,54,10.70
2014,04,26,09,55,10.70
2014,04,26,09,56,10.70
2014,04,26,09,57,10.70
2014,04,26,09,58,10.70
2014,04,26,09,59,10.70
2014,04,26,10,00,10.70
2014,04,26,10,01,10.70
2014,04,26,10,02,10.80
2014,04,26,10,03,10.80
2014,04,26,10,04,10.90
2014,04,26,10,05,10.90
2014,04,26,10,06,10.90
2014,04,26,10,07,10.90
2014,04,26,10,08,11.00
2014,04,26,10,09,11.10
2014,04,26,10,10,11.10
2014,04,26,10,11,11.00
2014,04,26,10,12,11.00
2014,04,26,10,13,11.00
2014,04,26,10,14,11.10
2014,04,26,10,15,11.10
2014,04,26,10,16,11.10
2014,04,26,10,17,11.10
2014,04,26,10,18,11.10
2014,04,26,10,19,11.10
2014,04,26,10,20,11.10
2014,04,26,10,21,11.10
2014,04,26,10,22,11.10
2014,04,26,10,23,11.10
2014,04,26,10,24,11.10
2014,04,26,10,25,11.10
2014,04,26,10,26,11.00
2014,04,26,10,27,10.90
2014,04,26,10,28,10.80
2014,04,26,10,29,10.80
2014,04,26,10,30,10.70
2014,04,26,10,31,10.70
2014,04,26,10,32,10.70
2014,04,26,10,33,10.60
2014,04,26,10,34,10.60
2014,04,26,10,35,10.60
2014,04,26,10,36,10.50
2014,04,26,10,37,10.50
2014,04,26,10,38,10.60
2014,04,26,10,39,10.70
2014,04,26,10,40,10.80
2014,04,26,10,41,10.80
2014,04,26,10,42,10.80
2014,04,26,10,43,10.80
2014,04,26,10,44,10.80
2014,04,26,10,45,10.80
2014,04,26,10,46,10.80
2014,04,26,10,47,10.90
2014,04,26,10,48,10.90
2014,04,26,10,49,10.90
2014,04,26,10,50,11.00
2014,04,26,10,51,11.00
2014,04,26,10,52,11.10
2014,04,26,10,53,11.00
2014,04,26,10,54,11.00
2014,04,26,10,55,11.00
2014,04,26,10,56,11.10
2014,04,26,10,57,11.30
2014,04,26,10,58,11.40
2014,04,26,10,59,11.50
2014,04,26,11,00,11.50
2014,04,26,11,01,11.60
2014,04,26,11,02,11.50
2014,04,26,11,03,11.50
2014,04,26,11,04,11.50
2014,04,26,11,05,11.50
2014,04,26,11,06,11.50
2014,04,26,11,07,11.50
2014,04,26,11,08,11.40
2014,04,26,11,09,11.40
2014,04,26,11,10,11.30
2014,04,26,11,11,11.10
2014,04,26,11,12,11.00
2014,04,26,11,13,10.90
2014,04,26,11,14,10.80
2014,04,26,11,15,10.80
2014,04,26,11,16,10.70
2014,04,26,11,17,10.70
2014,04,26,11,18,10.60
2014,04,26,11,19,10.60
2014,04,26,11,20,10.60
2014,04,26,11,21,10.60
2014,04,26,11,22,10.60
2014,04,26,11,23,10.50
2014,04,26,11,24,10.40
2014,04,26,11,25,10.40
2014,04,26,11,26,10.40
2014,04,26,11,27,10.40
2014,04,26,11,28,10.40
2014,04,26,11,29,10.40
2014,04,26,11,30,10.40
2014,04,26,11,31,10.40
2014,04,26,11,32,10.40
2014,04,26,11,33,10.30
2014,04,26,11,34,10.30
2014,04,26,11,35,10.30
2014,04,26,11,36,10.30
2014,04,26,11,37,10.40
2014,04,26,11,38,10.40
2014,04,26,11,39,10.40
2014,04,26,11,40,10.40
2014,04,26,11,41,10.40
2014,04,26,11,42,10.30
2014,04,26,11,43,10.30
2014,04,26,11,44,10.40
2014,04,26,11,45,10.50
2014,04,26,11,46,10.50
2014,04,26,11,47,10.50
2014,04,26,11,48,10.40
2014,04,26,11,49,10.40
2014,04,26,11,50,10.40
2014,04,26,11,51,10.40
2014,04,26,11,52,10.40
2014,04,26,11,53,10.50
2014,04,26,11,54,10.50
2014,04,26,11,55,10.60
2014,04,26,11,56,10.60
2014,04,26,11,57,10.60
2014,04,26,11,58,10.50
2014,04,26,11,59,10.50
2014,04,26,12,00,10.40
2014,04,26,12,01,10.30
2014,04,26,12,02,10.30
2014,04,26,12,03,10.30
2014,04,26,12,04,10.30
2014,04,26,12,05,10.30
2014,04,26,12,06,10.30
2014,04,26,12,07,10.30
2014,04,26,12,08,10.20
2014,04,26,12,09,10.30
2014,04,26,12,10,10.30
2014,04,26,12,11,10.20
2014,04,26,12,12,10.20
2014,04,26,12,13,10.20
2014,04,26,12,14,10.30
2014,04,26,12,15,10.30
2014,04,26,12,16,10.30
2014,04,26,12,17,10.20
2014,04,26,12,18,10.10
2014,04,26,12,19,10.00
2014,04,26,12,20,10.00
2014,04,26,12,21,10.00
2014,04,26,12,22,10.10
2014,04,26,12,23,10.10
2014,04,26,12,24,10.10
2014,04,26,12,25,10.20
2014,04,26,12,26,10.20
2014,04,26,12,27,10.30
2014,04,26,12,28,10.30
2014,04,26,12,29,10.30
2014,04,26,12,30,10.30
2014,04,26,12,31,10.40
2014,04,26,12,32,10.40
2014,04,26,12,33,10.40
2014,04,26,12,34,10.50
2014,04,26,12,35,10.60
2014,04,26,12,36,10.60
2014,04,26,12,37,10.50
2014,04,26,12,38,10.50
2014,04,26,12,39,10.50
2014,04,26,12,40,10.50
2014,04,26,12,41,10.40
2014,04,26,12,42,10.40
2014,04,26,12,43,10.30
2014,04,26,12,44,10.30
2014,04,26,12,45,10.30
2014,04,26,12,46,10.30
2014,04,26,12,47,10.30
2014,04,26,12,48,10.30
2014,04,26,12,49,10.30
2014,04,26,12,50,10.20
2014,04,26,12,51,10.20
2014,04,26,12,52,10.10
2014,04,26,12,53,10.10
2014,04,26,12,54,10.10
2014,04,26,12,55,10.10
2014,04,26,12,56,10.20
2014,04,26,12,57,10.10
2014,04,26,12,58,10.10
2014,04,26,12,59,10.10
2014,04,26,13,00,10.10
2014,04,26,13,01,10.20
2014,04,26,13,02,10.20
2014,04,26,13,03,10.20
2014,04,26,13,04,10.30
2014,04,26,13,05,10.40
2014,04,26,13,06,10.40
2014,04,26,13,07,10.30
2014,04,26,13,08,10.20
2014,04,26,13,09,10.10
2014,04,26,13,10,10.10
2014,04,26,13,11,10.00
2014,04,26,13,12,10.00
2014,04,26,13,13,10.00
2014,04,26,13,14,10.00
2014,04,26,13,15,10.00
2014,04,26,13,16,10.10
2014,04,26,13,17,10.00
2014,04,26,13,18,10.00
2014,04,26,13,19,10.00
2014,04,26,13,20,10.00
2014,04,26,13,21,9.90
2014,04,26,13,22,10.00
2014,04,26,13,23,10.10
2014,04,26,13,24,10.10
2014,04,26,13,25,10.10
2014,04,26,13,26,10.10
2014,04,26,13,27,10.10
2014,04,26,13,28,10.30
2014,04,26,13,29,10.40
2014,04,26,13,30,10.50
2014,04,26,13,31,10.70
2014,04,26,13,32,10.80
2014,04,26,13,33,10.80
2014,04,26,13,34,10.80
2014,04,26,13,35,10.90
2014,04,26,13,36,10.90
2014,04,26,13,37,10.90
2014,04,26,13,38,10.90
2014,04,26,13,39,10.80
2014,04,26,13,40,10.80
2014,04,26,13,41,10.80
2014,04,26,13,42,10.90
2014,04,26,13,43,10.90
2014,04,26,13,44,10.90
2014,04,26,13,45,10.90
2014,04,26,13,46,10.90
2014,04,26,13,47,11.00
2014,04,26,13,48,11.00
2014,04,26,13,49,11.10
2014,04,26,13,50,11.10
2014,04,26,13,51,11.00
2014,04,26,13,52,11.00
2014,04,26,13,53,10.90
2014,04,26,13,54,10.80
2014,04,26,13,55,10.80
2014,04,26,13,56,10.80
2014,04,26,13,57,10.80
2014,04,26,13,58,10.90
2014,04,26,13,59,10.90
2014,04,26,14,00,11.00
2014,04,26,14,01,11.10
2014,04,26,14,02,11.10
2014,04,26,14,03,11.20
2014,04,26,14,04,11.20
2014,04,26,14,05,11.20
2014,04,26,14,06,11.30
2014,04,26,14,07,11.40
2014,04,26,14,08,11.40
2014,04,26,14,09,11.50
2014,04,26,14,10,11.60
2014,04,26,14,11,11.60
2014,04,26,14,12,11.60
2014,04,26,14,13,11.50
2014,04,26,14,14,11.50
2014,04,26,14,15,11.60
2014,04,26,14,16,11.70
2014,04,26,14,17,11.80
2014,04,26,14,18,11.90
2014,04,26,14,19,11.90
2014,04,26,14,20,11.90
2014,04,26,14,21,11.90
2014,04,26,14,22,11.70
2014,04,26,14,23,11.60
2014,04,26,14,24,11.50
2014,04,26,14,25,11.40
2014,04,26,14,26,11.20
2014,04,26,14,27,11.10
2014,04,26,14,28,11.00
2014,04,26,14,29,10.90
2014,04,26,14,30,10.80
2014,04,26,14,31,10.80
2014,04,26,14,32,10.70
2014,04,26,14,33,10.80
2014,04,26,14,34,10.80
2014,04,26,14,35,10.80
2014,04,26,14,36,10.80
2014,04,26,14,37,10.80
2014,04,26,14,38,10.70
2014,04,26,14,39,10.80
2014,04,26,14,40,10.80
2014,04,26,14,41,10.80
2014,04,26,14,42,10.80
2014,04,26,14,43,10.80
2014,04,26,14,44,10.80
2014,04,26,14,45,10.80
2014,04,26,14,46,10.90
2014,04,26,14,47,10.90
2014,04,26,14,48,10.90
2014,04,26,14,49,10.90
2014,04,26,14,50,11.00
2014,04,26,14,51,11.10
2014,04,26,14,52,11.20
2014,04,26,14,53,11.30
2014,04,26,14,54,11.40
2014,04,26,14,55,11.50
2014,04,26,14,56,11.60
2014,04,26,14,57,11.70
2014,04,26,14,58,11.80
2014,04,26,14,59,11.90
2014,04,26,15,00,11.90
2014,04,26,15,01,11.90
2014,04,26,15,02,11.90
2014,04,26,15,03,11.80
2014,04,26,15,04,11.80
2014,04,26,15,05,11.90
2014,04,26,15,06,11.90
2014,04,26,15,07,11.80
2014,04,26,15,08,11.70
2014,04,26,15,09,11.70
2014,04,26,15,10,11.60
2014,04,26,15,11,11.60
2014,04,26,15,12,11.50
2014,04,26,15,13,11.50
2014,04,26,15,14,11.40
2014,04,26,15,15,11.50
2014,04,26,15,16,11.50
2014,04,26,15,17,11.60
2014,04,26,15,18,11.60
2014,04,26,15,19,11.60
2014,04,26,15,20,11.70
2014,04,26,15,21,11.70
2014,04,26,15,22,11.70
2014,04,26,15,23,11.70
2014,04,26,15,24,11.80
2014,04,26,15,25,11.80
2014,04,26,15,26,11.90
2014,04,26,15,27,12.10
2014,04,26,15,28,12.20
2014,04,26,15,29,12.30
2014,04,26,15,30,12.30
2014,04,26,15,31,12.30
2014,04,26,15,32,12.30
2014,04,26,15,33,12.30
2014,04,26,15,34,12.20
2014,04,26,15,35,12.20
2014,04,26,15,36,12.20
2014,04,26,15,37,12.20
2014,04,26,15,38,12.30
2014,04,26,15,39,12.30
2014,04,26,15,40,12.30
2014,04,26,15,41,12.40
2014,04,26,15,42,12.50
2014,04,26,15,43,12.60
2014,04,26,15,44,12.70
2014,04,26,15,45,12.70
2014,04,26,15,46,12.80
2014,04,26,15,47,12.70
2014,04,26,15,48,12.70
2014,04,26,15,49,12.70
2014,04,26,15,50,12.70
2014,04,26,15,51,12.70
2014,04,26,15,52,12.70
2014,04,26,15,53,12.80
2014,04,26,15,54,12.90
2014,04,26,15,55,13.00
2014,04,26,15,56,13.00
2014,04,26,15,57,13.10
2014,04,26,15,58,13.10
2014,04,26,15,59,13.10
2014,04,26,16,00,13.10
2014,04,26,16,01,13.10
2014,04,26,16,02,13.00
2014,04,26,16,03,13.00
2014,04,26,16,04,12.90
2014,04,26,16,05,12.90
2014,04,26,16,06,12.80
2014,04,26,16,07,12.90
2014,04,26,16,08,12.90
2014,04,26,16,09,12.90
2014,04,26,16,10,13.00
2014,04,26,16,11,13.00
2014,04,26,16,12,13.00
2014,04,26,16,13,12.90
2014,04,26,16,14,12.80
2014,04,26,16,15,12.80
2014,04,26,16,16,12.70
2014,04,26,16,17,12.60
2014,04,26,16,18,12.50
2014,04,26,16,19,12.50
2014,04,26,16,20,12.60
2014,04,26,16,21,12.60
2014,04,26,16,22,12.60
2014,04,26,16,23,12.70
2014,04,26,16,24,12.70
2014,04,26,16,25,12.80
2014,04,26,16,26,12.80
2014,04,26,16,27,12.80
2014,04,26,16,28,12.70
2014,04,26,16,29,12.70
2014,04,26,16,30,12.70
2014,04,26,16,31,12.70
2014,04,26,16,32,12.60
2014,04,26,16,33,12.60
2014,04,26,16,34,12.60
2014,04,26,16,35,12.70
2014,04,26,16,36,12.80
2014,04,26,16,37,12.80
2014,04,26,16,38,12.90
2014,04,26,16,39,12.90
2014,04,26,16,40,12.90
2014,04,26,16,41,12.90
2014,04,26,16,42,12.90
2014,04,26,16,43,12.80
2014,04,26,16,44,12.80
2014,04,26,16,45,12.70
2014,04,26,16,46,12.70
2014,04,26,16,47,12.60
2014,04,26,16,48,12.60
2014,04,26,16,49,12.60
2014,04,26,16,50,12.60
2014,04,26,16,51,12.60
2014,04,26,16,52,12.60
2014,04,26,16,53,12.60
2014,04,26,16,54,12.60
2014,04,26,16,55,12.60
2014,04,26,16,56,12.60
2014,04,26,16,57,12.60
2014,04,26,16,58,12.50
2014,04,26,16,59,12.50
2014,04,26,17,00,12.50
2014,04,26,17,01,12.50
2014,04,26,17,02,12.50
2014,04,26,17,03,12.50
2014,04,26,17,04,12.60
2014,04,26,17,05,12.60
2014,04,26,17,06,12.50
2014,04,26,17,07,12.50
2014,04,26,17,08,12.60
2014,04,26,17,09,12.60
2014,04,26,17,10,12.60
2014,04,26,17,11,12.60
2014,04,26,17,12,12.60
2014,04,26,17,13,12.60
2014,04,26,17,14,12.60
2014,04,26,17,15,12.50
2014,04,26,17,16,12.40
2014,04,26,17,17,12.40
2014,04,26,17,18,12.30
2014,04,26,17,19,12.30
2014,04,26,17,20,12.30
2014,04,26,17,21,12.30
2014,04,26,17,22,12.30
2014,04,26,17,23,12.30
2014,04,26,17,24,12.30
2014,04,26,17,25,12.40
2014,04,26,17,26,12.40
2014,04,26,17,27,12.40
2014,04,26,17,28,12.40
2014,04,26,17,29,12.40
2014,04,26,17,30,12.40
2014,04,26,17,31,12.40
2014,04,26,17,32,12.30
2014,04,26,17,33,12.30
2014,04,26,17,34,12.30
2014,04,26,17,35,12.30
2014,04,26,17,36,12.30
2014,04,26,17,37,12.30
2014,04,26,17,38,12.30
2014,04,26,17,39,12.20
2014,04,26,17,40,12.20
2014,04,26,17,41,12.20
2014,04,26,17,42,12.20
2014,04,26,17,43,12.20